COSMOS 12221 12071U 80093A 11069.23191025 .00167324 00000-0 57224-3 0 72872 12071 081.1965 150.5903 0001769 231.1507 128.9498 15.89282597671863
Cosmos 1222 was a Soviet ELINT (Electronic and Signals Intelligence) satellite launched from the Plesetsk cosmodrome.